Year,Month,Day,Hour,Minute,Value (Times are PST for temperature in C)
2009,08,21,00,00,17.90
2009,08,21,00,01,17.90
2009,08,21,00,02,17.90
2009,08,21,00,03,17.90
2009,08,21,00,04,17.90
2009,08,21,00,05,17.90
2009,08,21,00,06,17.90
2009,08,21,00,07,17.90
2009,08,21,00,08,17.90
2009,08,21,00,09,17.90
2009,08,21,00,10,17.90
2009,08,21,00,11,17.90
2009,08,21,00,12,17.90
2009,08,21,00,13,17.80
2009,08,21,00,14,17.80
2009,08,21,00,15,17.80
2009,08,21,00,16,17.80
2009,08,21,00,17,17.80
2009,08,21,00,18,17.70
2009,08,21,00,19,17.70
2009,08,21,00,20,17.60
2009,08,21,00,21,17.60
2009,08,21,00,22,17.60
2009,08,21,00,23,17.50
2009,08,21,00,24,17.50
2009,08,21,00,25,17.50
2009,08,21,00,26,17.50
2009,08,21,00,27,17.50
2009,08,21,00,28,17.60
2009,08,21,00,29,17.60
2009,08,21,00,30,17.60
2009,08,21,00,31,17.60
2009,08,21,00,32,17.60
2009,08,21,00,33,17.60
2009,08,21,00,34,17.60
2009,08,21,00,35,17.60
2009,08,21,00,36,17.60
2009,08,21,00,37,17.50
2009,08,21,00,38,17.50
2009,08,21,00,39,17.50
2009,08,21,00,40,17.50
2009,08,21,00,41,17.50
2009,08,21,00,42,17.50
2009,08,21,00,43,17.50
2009,08,21,00,44,17.50
2009,08,21,00,45,17.50
2009,08,21,00,46,17.50
2009,08,21,00,47,17.50
2009,08,21,00,48,17.40
2009,08,21,00,49,17.40
2009,08,21,00,50,17.40
2009,08,21,00,51,17.40
2009,08,21,00,52,17.30
2009,08,21,00,53,17.30
2009,08,21,00,54,17.30
2009,08,21,00,55,17.30
2009,08,21,00,56,17.30
2009,08,21,00,57,17.30
2009,08,21,00,58,17.30
2009,08,21,00,59,17.30
2009,08,21,01,00,17.30
2009,08,21,01,01,17.30
2009,08,21,01,02,17.30
2009,08,21,01,03,17.30
2009,08,21,01,04,17.30
2009,08,21,01,05,17.40
2009,08,21,01,06,17.40
2009,08,21,01,07,17.50
2009,08,21,01,08,17.50
2009,08,21,01,09,17.50
2009,08,21,01,10,17.50
2009,08,21,01,11,17.50
2009,08,21,01,12,17.50
2009,08,21,01,13,17.50
2009,08,21,01,14,17.50
2009,08,21,01,15,17.50
2009,08,21,01,16,17.50
2009,08,21,01,17,17.50
2009,08,21,01,18,17.50
2009,08,21,01,19,17.50
2009,08,21,01,20,17.50
2009,08,21,01,21,17.50
2009,08,21,01,22,17.50
2009,08,21,01,23,17.50
2009,08,21,01,24,17.50
2009,08,21,01,25,17.50
2009,08,21,01,26,17.40
2009,08,21,01,27,17.40
2009,08,21,01,28,17.40
2009,08,21,01,29,17.50
2009,08,21,01,30,17.50
2009,08,21,01,31,17.50
2009,08,21,01,32,17.50
2009,08,21,01,33,17.50
2009,08,21,01,34,17.50
2009,08,21,01,35,17.40
2009,08,21,01,36,17.40
2009,08,21,01,37,17.40
2009,08,21,01,38,17.40
2009,08,21,01,39,17.40
2009,08,21,01,40,17.40
2009,08,21,01,41,17.40
2009,08,21,01,42,17.40
2009,08,21,01,43,17.40
2009,08,21,01,44,17.40
2009,08,21,01,45,17.40
2009,08,21,01,46,17.40
2009,08,21,01,47,17.40
2009,08,21,01,48,17.40
2009,08,21,01,49,17.40
2009,08,21,01,50,17.40
2009,08,21,01,51,17.40
2009,08,21,01,52,17.30
2009,08,21,01,53,17.30
2009,08,21,01,54,17.30
2009,08,21,01,55,17.30
2009,08,21,01,56,17.30
2009,08,21,01,57,17.30
2009,08,21,01,58,17.30
2009,08,21,01,59,17.30
2009,08,21,02,00,17.30
2009,08,21,02,01,17.30
2009,08,21,02,02,17.30
2009,08,21,02,03,17.30
2009,08,21,02,04,17.30
2009,08,21,02,05,17.30
2009,08,21,02,06,17.30
2009,08,21,02,07,17.30
2009,08,21,02,08,17.30
2009,08,21,02,09,17.30
2009,08,21,02,10,17.30
2009,08,21,02,11,17.20
2009,08,21,02,12,17.20
2009,08,21,02,13,17.20
2009,08,21,02,14,17.20
2009,08,21,02,15,17.10
2009,08,21,02,16,17.10
2009,08,21,02,17,17.10
2009,08,21,02,18,17.10
2009,08,21,02,19,17.10
2009,08,21,02,20,17.10
2009,08,21,02,21,17.00
2009,08,21,02,22,17.00
2009,08,21,02,23,17.00
2009,08,21,02,24,17.00
2009,08,21,02,25,17.00
2009,08,21,02,26,17.00
2009,08,21,02,27,17.00
2009,08,21,02,28,17.00
2009,08,21,02,29,16.90
2009,08,21,02,30,16.90
2009,08,21,02,31,16.90
2009,08,21,02,32,16.90
2009,08,21,02,33,16.90
2009,08,21,02,34,16.90
2009,08,21,02,35,16.90
2009,08,21,02,36,16.90
2009,08,21,02,37,16.90
2009,08,21,02,38,16.80
2009,08,21,02,39,16.80
2009,08,21,02,40,16.80
2009,08,21,02,41,16.80
2009,08,21,02,42,16.80
2009,08,21,02,43,16.80
2009,08,21,02,44,16.70
2009,08,21,02,45,16.70
2009,08,21,02,46,16.70
2009,08,21,02,47,16.70
2009,08,21,02,48,16.70
2009,08,21,02,49,16.70
2009,08,21,02,50,16.70
2009,08,21,02,51,16.70
2009,08,21,02,52,16.70
2009,08,21,02,53,16.70
2009,08,21,02,54,16.70
2009,08,21,02,55,16.70
2009,08,21,02,56,16.70
2009,08,21,02,57,16.70
2009,08,21,02,58,16.70
2009,08,21,02,59,16.70
2009,08,21,03,00,16.70
2009,08,21,03,01,16.70
2009,08,21,03,02,16.70
2009,08,21,03,03,16.70
2009,08,21,03,04,16.70
2009,08,21,03,05,16.70
2009,08,21,03,06,16.70
2009,08,21,03,07,16.70
2009,08,21,03,08,16.70
2009,08,21,03,09,16.70
2009,08,21,03,10,16.70
2009,08,21,03,11,16.60
2009,08,21,03,12,16.60
2009,08,21,03,13,16.60
2009,08,21,03,14,16.60
2009,08,21,03,15,16.60
2009,08,21,03,16,16.60
2009,08,21,03,17,16.60
2009,08,21,03,18,16.60
2009,08,21,03,19,16.60
2009,08,21,03,20,16.60
2009,08,21,03,21,16.60
2009,08,21,03,22,16.50
2009,08,21,03,23,16.40
2009,08,21,03,24,16.40
2009,08,21,03,25,16.40
2009,08,21,03,26,16.40
2009,08,21,03,27,16.40
2009,08,21,03,28,16.40
2009,08,21,03,29,16.40
2009,08,21,03,30,16.40
2009,08,21,03,31,16.40
2009,08,21,03,32,16.40
2009,08,21,03,33,16.30
2009,08,21,03,34,16.30
2009,08,21,03,35,16.30
2009,08,21,03,36,16.30
2009,08,21,03,37,16.30
2009,08,21,03,38,16.30
2009,08,21,03,39,16.30
2009,08,21,03,40,16.30
2009,08,21,03,41,16.30
2009,08,21,03,42,16.30
2009,08,21,03,43,16.30
2009,08,21,03,44,16.30
2009,08,21,03,45,16.30
2009,08,21,03,46,16.30
2009,08,21,03,47,16.30
2009,08,21,03,48,16.30
2009,08,21,03,49,16.30
2009,08,21,03,50,16.30
2009,08,21,03,51,16.30
2009,08,21,03,52,16.30
2009,08,21,03,53,16.20
2009,08,21,03,54,16.20
2009,08,21,03,55,16.20
2009,08,21,03,56,16.20
2009,08,21,03,57,16.20
2009,08,21,03,58,16.30
2009,08,21,03,59,16.30
2009,08,21,04,00,16.30
2009,08,21,04,01,16.30
2009,08,21,04,02,16.30
2009,08,21,04,03,16.30
2009,08,21,04,04,16.30
2009,08,21,04,05,16.30
2009,08,21,04,06,16.20
2009,08,21,04,07,16.20
2009,08,21,04,08,16.20
2009,08,21,04,09,16.30
2009,08,21,04,10,16.30
2009,08,21,04,11,16.30
2009,08,21,04,12,16.30
2009,08,21,04,13,16.30
2009,08,21,04,14,16.30
2009,08,21,04,15,16.30
2009,08,21,04,16,16.30
2009,08,21,04,17,16.30
2009,08,21,04,18,16.30
2009,08,21,04,19,16.30
2009,08,21,04,20,16.30
2009,08,21,04,21,16.30
2009,08,21,04,22,16.30
2009,08,21,04,23,16.30
2009,08,21,04,24,16.30
2009,08,21,04,25,16.30
2009,08,21,04,26,16.30
2009,08,21,04,27,16.30
2009,08,21,04,28,16.30
2009,08,21,04,29,16.30
2009,08,21,04,30,16.30
2009,08,21,04,31,16.30
2009,08,21,04,32,16.30
2009,08,21,04,33,16.30
2009,08,21,04,34,16.30
2009,08,21,04,35,16.30
2009,08,21,04,36,16.30
2009,08,21,04,37,16.30
2009,08,21,04,38,16.30
2009,08,21,04,39,16.30
2009,08,21,04,40,16.30
2009,08,21,04,41,16.30
2009,08,21,04,42,16.30
2009,08,21,04,43,16.30
2009,08,21,04,44,16.30
2009,08,21,04,45,16.30
2009,08,21,04,46,16.30
2009,08,21,04,47,16.30
2009,08,21,04,48,16.20
2009,08,21,04,49,16.20
2009,08,21,04,50,16.20
2009,08,21,04,51,16.20
2009,08,21,04,52,16.20
2009,08,21,04,53,16.20
2009,08,21,04,54,16.20
2009,08,21,04,55,16.20
2009,08,21,04,56,16.20
2009,08,21,04,57,16.20
2009,08,21,04,58,16.20
2009,08,21,04,59,16.20
2009,08,21,05,00,16.20
2009,08,21,05,01,16.20
2009,08,21,05,02,16.20
2009,08,21,05,03,16.20
2009,08,21,05,04,16.20
2009,08,21,05,05,16.20
2009,08,21,05,06,16.20
2009,08,21,05,07,16.20
2009,08,21,05,08,16.20
2009,08,21,05,09,16.20
2009,08,21,05,10,16.20
2009,08,21,05,11,16.20
2009,08,21,05,12,16.20
2009,08,21,05,13,16.20
2009,08,21,05,14,16.20
2009,08,21,05,15,16.20
2009,08,21,05,16,16.10
2009,08,21,05,17,16.10
2009,08,21,05,18,16.10
2009,08,21,05,19,16.10
2009,08,21,05,20,16.10
2009,08,21,05,21,16.10
2009,08,21,05,22,16.10
2009,08,21,05,23,16.10
2009,08,21,05,24,16.10
2009,08,21,05,25,16.10
2009,08,21,05,26,16.10
2009,08,21,05,27,16.10
2009,08,21,05,28,16.10
2009,08,21,05,29,16.10
2009,08,21,05,30,16.10
2009,08,21,05,31,16.10
2009,08,21,05,32,16.10
2009,08,21,05,33,16.10
2009,08,21,05,34,16.10
2009,08,21,05,35,16.10
2009,08,21,05,36,16.10
2009,08,21,05,37,16.10
2009,08,21,05,38,16.10
2009,08,21,05,39,16.10
2009,08,21,05,40,16.10
2009,08,21,05,41,16.10
2009,08,21,05,42,16.10
2009,08,21,05,43,16.10
2009,08,21,05,44,16.10
2009,08,21,05,45,16.10
2009,08,21,05,46,16.10
2009,08,21,05,47,16.10
2009,08,21,05,48,16.10
2009,08,21,05,49,16.10
2009,08,21,05,50,16.10
2009,08,21,05,51,16.10
2009,08,21,05,52,16.00
2009,08,21,05,53,15.90
2009,08,21,05,54,15.90
2009,08,21,05,55,15.90
2009,08,21,05,56,15.80
2009,08,21,05,57,15.80
2009,08,21,05,58,15.80
2009,08,21,05,59,15.80
2009,08,21,06,00,15.80
2009,08,21,06,01,15.80
2009,08,21,06,02,15.80
2009,08,21,06,03,15.80
2009,08,21,06,04,15.90
2009,08,21,06,05,15.90
2009,08,21,06,06,15.90
2009,08,21,06,07,15.90
2009,08,21,06,08,15.90
2009,08,21,06,09,15.90
2009,08,21,06,10,16.10
2009,08,21,06,11,16.10
2009,08,21,06,12,16.10
2009,08,21,06,13,16.10
2009,08,21,06,14,16.10
2009,08,21,06,15,16.10
2009,08,21,06,16,16.10
2009,08,21,06,17,16.10
2009,08,21,06,18,16.10
2009,08,21,06,19,16.10
2009,08,21,06,20,16.10
2009,08,21,06,21,16.10
2009,08,21,06,22,16.10
2009,08,21,06,23,16.10
2009,08,21,06,24,16.10
2009,08,21,06,25,16.10
2009,08,21,06,26,16.10
2009,08,21,06,27,16.10
2009,08,21,06,28,16.10
2009,08,21,06,29,16.10
2009,08,21,06,30,16.10
2009,08,21,06,31,16.10
2009,08,21,06,32,16.10
2009,08,21,06,33,16.10
2009,08,21,06,34,16.10
2009,08,21,06,35,16.10
2009,08,21,06,36,16.10
2009,08,21,06,37,16.10
2009,08,21,06,38,16.10
2009,08,21,06,39,16.10
2009,08,21,06,40,16.10
2009,08,21,06,41,16.10
2009,08,21,06,42,16.20
2009,08,21,06,43,16.20
2009,08,21,06,44,16.20
2009,08,21,06,45,16.20
2009,08,21,06,46,16.30
2009,08,21,06,47,16.30
2009,08,21,06,48,16.30
2009,08,21,06,49,16.30
2009,08,21,06,50,16.30
2009,08,21,06,51,16.40
2009,08,21,06,52,16.40
2009,08,21,06,53,16.40
2009,08,21,06,54,16.40
2009,08,21,06,55,16.40
2009,08,21,06,56,16.40
2009,08,21,06,57,16.40
2009,08,21,06,58,16.40
2009,08,21,06,59,16.50
2009,08,21,07,00,16.60
2009,08,21,07,01,16.60
2009,08,21,07,02,16.60
2009,08,21,07,03,16.60
2009,08,21,07,04,16.60
2009,08,21,07,05,16.60
2009,08,21,07,06,16.70
2009,08,21,07,07,16.70
2009,08,21,07,08,16.70
2009,08,21,07,09,16.70
2009,08,21,07,10,16.70
2009,08,21,07,11,16.70
2009,08,21,07,12,16.70
2009,08,21,07,13,16.70
2009,08,21,07,14,16.70
2009,08,21,07,15,16.50
2009,08,21,07,16,16.30
2009,08,21,07,17,16.10
2009,08,21,07,18,16.00
2009,08,21,07,19,15.90
2009,08,21,07,20,15.80
2009,08,21,07,21,15.80
2009,08,21,07,22,15.70
2009,08,21,07,23,15.60
2009,08,21,07,24,15.50
2009,08,21,07,25,15.40
2009,08,21,07,26,15.30
2009,08,21,07,27,15.30
2009,08,21,07,28,15.30
2009,08,21,07,29,15.30
2009,08,21,07,30,15.30
2009,08,21,07,31,15.30
2009,08,21,07,32,15.30
2009,08,21,07,33,15.40
2009,08,21,07,34,15.40
2009,08,21,07,35,15.40
2009,08,21,07,36,15.50
2009,08,21,07,37,15.50
2009,08,21,07,38,15.60
2009,08,21,07,39,15.70
2009,08,21,07,40,15.90
2009,08,21,07,41,16.00
2009,08,21,07,42,16.10
2009,08,21,07,43,16.10
2009,08,21,07,44,16.10
2009,08,21,07,45,16.10
2009,08,21,07,46,16.20
2009,08,21,07,47,16.20
2009,08,21,07,48,16.20
2009,08,21,07,49,16.20
2009,08,21,07,50,16.20
2009,08,21,07,51,16.30
2009,08,21,07,52,16.30
2009,08,21,07,53,16.30
2009,08,21,07,54,16.40
2009,08,21,07,55,16.40
2009,08,21,07,56,16.40
2009,08,21,07,57,16.40
2009,08,21,07,58,16.40
2009,08,21,07,59,16.40
2009,08,21,08,00,16.40
2009,08,21,08,01,16.50
2009,08,21,08,02,16.60
2009,08,21,08,03,16.70
2009,08,21,08,04,16.70
2009,08,21,08,05,16.80
2009,08,21,08,06,17.00
2009,08,21,08,07,17.00
2009,08,21,08,08,17.20
2009,08,21,08,09,17.20
2009,08,21,08,10,17.30
2009,08,21,08,11,17.30
2009,08,21,08,12,17.30
2009,08,21,08,13,17.40
2009,08,21,08,14,17.40
2009,08,21,08,15,17.40
2009,08,21,08,16,17.50
2009,08,21,08,17,17.40
2009,08,21,08,18,17.30
2009,08,21,08,19,17.30
2009,08,21,08,20,17.30
2009,08,21,08,21,17.30
2009,08,21,08,22,17.30
2009,08,21,08,23,17.30
2009,08,21,08,24,17.30
2009,08,21,08,25,17.30
2009,08,21,08,26,17.30
2009,08,21,08,27,17.30
2009,08,21,08,28,17.40
2009,08,21,08,29,17.40
2009,08,21,08,30,17.40
2009,08,21,08,31,17.50
2009,08,21,08,32,17.50
2009,08,21,08,33,17.50
2009,08,21,08,34,17.50
2009,08,21,08,35,17.50
2009,08,21,08,36,17.50
2009,08,21,08,37,17.50
2009,08,21,08,38,17.50
2009,08,21,08,39,17.50
2009,08,21,08,40,17.60
2009,08,21,08,41,17.60
2009,08,21,08,42,17.60
2009,08,21,08,43,17.60
2009,08,21,08,44,17.70
2009,08,21,08,45,17.70
2009,08,21,08,46,17.70
2009,08,21,08,47,17.70
2009,08,21,08,48,17.80
2009,08,21,08,49,17.90
2009,08,21,08,50,17.90
2009,08,21,08,51,17.90
2009,08,21,08,52,17.90
2009,08,21,08,53,17.90
2009,08,21,08,54,17.90
2009,08,21,08,55,17.90
2009,08,21,08,56,17.90
2009,08,21,08,57,17.90
2009,08,21,08,58,17.90
2009,08,21,08,59,18.00
2009,08,21,09,00,18.10
2009,08,21,09,01,18.10
2009,08,21,09,02,18.10
2009,08,21,09,03,18.10
2009,08,21,09,04,18.10
2009,08,21,09,05,18.10
2009,08,21,09,06,18.20
2009,08,21,09,07,18.20
2009,08,21,09,08,18.20
2009,08,21,09,09,18.20
2009,08,21,09,10,18.20
2009,08,21,09,11,18.20
2009,08,21,09,12,18.20
2009,08,21,09,13,18.20
2009,08,21,09,14,18.20
2009,08,21,09,15,18.20
2009,08,21,09,16,18.20
2009,08,21,09,17,18.20
2009,08,21,09,18,18.20
2009,08,21,09,19,18.20
2009,08,21,09,20,18.30
2009,08,21,09,21,18.30
2009,08,21,09,22,18.40
2009,08,21,09,23,18.40
2009,08,21,09,24,18.50
2009,08,21,09,25,18.60
2009,08,21,09,26,18.60
2009,08,21,09,27,18.70
2009,08,21,09,28,18.70
2009,08,21,09,29,18.70
2009,08,21,09,30,18.70
2009,08,21,09,31,18.80
2009,08,21,09,32,18.80
2009,08,21,09,33,18.80
2009,08,21,09,34,18.80
2009,08,21,09,35,18.80
2009,08,21,09,36,18.80
2009,08,21,09,37,18.80
2009,08,21,09,38,18.90
2009,08,21,09,39,18.90
2009,08,21,09,40,18.90
2009,08,21,09,41,18.90
2009,08,21,09,42,19.00
2009,08,21,09,43,19.10
2009,08,21,09,44,19.10
2009,08,21,09,45,19.10
2009,08,21,09,46,19.10
2009,08,21,09,47,19.10
2009,08,21,09,48,19.10
2009,08,21,09,49,19.10
2009,08,21,09,50,19.10
2009,08,21,09,51,19.10
2009,08,21,09,52,19.10
2009,08,21,09,53,19.10
2009,08,21,09,54,19.10
2009,08,21,09,55,19.10
2009,08,21,09,56,19.10
2009,08,21,09,57,19.10
2009,08,21,09,58,19.10
2009,08,21,09,59,19.10
2009,08,21,10,00,19.10
2009,08,21,10,01,19.10
2009,08,21,10,02,19.10
2009,08,21,10,03,19.10
2009,08,21,10,04,19.00
2009,08,21,10,05,19.00
2009,08,21,10,06,19.10
2009,08,21,10,07,19.10
2009,08,21,10,08,19.10
2009,08,21,10,09,19.10
2009,08,21,10,10,19.10
2009,08,21,10,11,19.10
2009,08,21,10,12,19.10
2009,08,21,10,13,19.10
2009,08,21,10,14,19.10
2009,08,21,10,15,19.10
2009,08,21,10,16,19.00
2009,08,21,10,17,18.90
2009,08,21,10,18,18.90
2009,08,21,10,19,18.80
2009,08,21,10,20,18.80
2009,08,21,10,21,18.90
2009,08,21,10,22,18.90
2009,08,21,10,23,18.80
2009,08,21,10,24,18.80
2009,08,21,10,25,18.80
2009,08,21,10,26,18.80
2009,08,21,10,27,18.80
2009,08,21,10,28,18.90
2009,08,21,10,29,18.90
2009,08,21,10,30,18.90
2009,08,21,10,31,18.90
2009,08,21,10,32,19.00
2009,08,21,10,33,19.10
2009,08,21,10,34,19.10
2009,08,21,10,35,19.10
2009,08,21,10,36,19.10
2009,08,21,10,37,19.10
2009,08,21,10,38,19.10
2009,08,21,10,39,19.10
2009,08,21,10,40,19.10
2009,08,21,10,41,19.10
2009,08,21,10,42,19.10
2009,08,21,10,43,18.90
2009,08,21,10,44,18.90
2009,08,21,10,45,18.90
2009,08,21,10,46,18.90
2009,08,21,10,47,18.90
2009,08,21,10,48,18.60
2009,08,21,10,49,18.50
2009,08,21,10,50,18.40
2009,08,21,10,51,18.30
2009,08,21,10,52,18.20
2009,08,21,10,53,18.20
2009,08,21,10,54,18.10
2009,08,21,10,55,18.10
2009,08,21,10,56,18.10
2009,08,21,10,57,18.20
2009,08,21,10,58,18.20
2009,08,21,10,59,18.20
2009,08,21,11,00,18.20
2009,08,21,11,01,18.20
2009,08,21,11,02,18.30
2009,08,21,11,03,18.40
2009,08,21,11,04,18.50
2009,08,21,11,05,18.50
2009,08,21,11,06,18.50
2009,08,21,11,07,18.50
2009,08,21,11,08,18.40
2009,08,21,11,09,18.30
2009,08,21,11,10,18.20
2009,08,21,11,11,18.10
2009,08,21,11,12,18.00
2009,08,21,11,13,17.90
2009,08,21,11,14,17.90
2009,08,21,11,15,17.90
2009,08,21,11,16,17.80
2009,08,21,11,17,17.80
2009,08,21,11,18,17.70
2009,08,21,11,19,17.70
2009,08,21,11,20,17.60
2009,08,21,11,21,17.50
2009,08,21,11,22,17.30
2009,08,21,11,23,17.30
2009,08,21,11,24,17.20
2009,08,21,11,25,17.10
2009,08,21,11,26,17.10
2009,08,21,11,27,17.10
2009,08,21,11,28,17.10
2009,08,21,11,29,17.00
2009,08,21,11,30,17.00
2009,08,21,11,31,17.00
2009,08,21,11,32,17.10
2009,08,21,11,33,17.10
2009,08,21,11,34,17.10
2009,08,21,11,35,17.00
2009,08,21,11,36,17.10
2009,08,21,11,37,17.10
2009,08,21,11,38,17.10
2009,08,21,11,39,17.20
2009,08,21,11,40,17.30
2009,08,21,11,41,17.30
2009,08,21,11,42,17.40
2009,08,21,11,43,17.40
2009,08,21,11,44,17.40
2009,08,21,11,45,17.30
2009,08,21,11,46,17.40
2009,08,21,11,47,17.40
2009,08,21,11,48,17.40
2009,08,21,11,49,17.40
2009,08,21,11,50,17.40
2009,08,21,11,51,17.40
2009,08,21,11,52,17.40
2009,08,21,11,53,17.40
2009,08,21,11,54,17.50
2009,08,21,11,55,17.50
2009,08,21,11,56,17.50
2009,08,21,11,57,17.50
2009,08,21,11,58,17.50
2009,08,21,11,59,17.50
2009,08,21,12,00,17.40
2009,08,21,12,01,17.40
2009,08,21,12,02,17.30
2009,08,21,12,03,17.30
2009,08,21,12,04,17.30
2009,08,21,12,05,17.30
2009,08,21,12,06,17.30
2009,08,21,12,07,17.30
2009,08,21,12,08,17.30
2009,08,21,12,09,17.30
2009,08,21,12,10,17.30
2009,08,21,12,11,17.30
2009,08,21,12,12,17.40
2009,08,21,12,13,17.50
2009,08,21,12,14,17.60
2009,08,21,12,15,17.70
2009,08,21,12,16,17.70
2009,08,21,12,17,17.80
2009,08,21,12,18,17.70
2009,08,21,12,19,17.70
2009,08,21,12,20,17.70
2009,08,21,12,21,17.70
2009,08,21,12,22,17.70
2009,08,21,12,23,17.80
2009,08,21,12,24,17.80
2009,08,21,12,25,17.70
2009,08,21,12,26,17.70
2009,08,21,12,27,17.60
2009,08,21,12,28,17.50
2009,08,21,12,29,17.40
2009,08,21,12,30,17.40
2009,08,21,12,31,17.40
2009,08,21,12,32,17.50
2009,08,21,12,33,17.50
2009,08,21,12,34,17.60
2009,08,21,12,35,17.70
2009,08,21,12,36,17.70
2009,08,21,12,37,17.70
2009,08,21,12,38,17.80
2009,08,21,12,39,17.80
2009,08,21,12,40,17.90
2009,08,21,12,41,17.90
2009,08,21,12,42,17.90
2009,08,21,12,43,17.90
2009,08,21,12,44,18.10
2009,08,21,12,45,18.20
2009,08,21,12,46,18.20
2009,08,21,12,47,18.30
2009,08,21,12,48,18.50
2009,08,21,12,49,18.50
2009,08,21,12,50,18.60
2009,08,21,12,51,18.60
2009,08,21,12,52,18.60
2009,08,21,12,53,18.60
2009,08,21,12,54,18.60
2009,08,21,12,55,18.60
2009,08,21,12,56,18.50
2009,08,21,12,57,18.50
2009,08,21,12,58,18.50
2009,08,21,12,59,18.50
2009,08,21,13,00,18.60
2009,08,21,13,01,18.50
2009,08,21,13,02,18.50
2009,08,21,13,03,18.60
2009,08,21,13,04,18.60
2009,08,21,13,05,18.60
2009,08,21,13,06,18.60
2009,08,21,13,07,18.70
2009,08,21,13,08,18.90
2009,08,21,13,09,18.90
2009,08,21,13,10,18.90
2009,08,21,13,11,18.90
2009,08,21,13,12,18.90
2009,08,21,13,13,18.80
2009,08,21,13,14,18.60
2009,08,21,13,15,18.60
2009,08,21,13,16,18.50
2009,08,21,13,17,18.40
2009,08,21,13,18,18.50
2009,08,21,13,19,18.50
2009,08,21,13,20,18.50
2009,08,21,13,21,18.50
2009,08,21,13,22,18.60
2009,08,21,13,23,18.70
2009,08,21,13,24,18.80
2009,08,21,13,25,18.80
2009,08,21,13,26,18.80
2009,08,21,13,27,18.90
2009,08,21,13,28,18.90
2009,08,21,13,29,18.90
2009,08,21,13,30,18.90
2009,08,21,13,31,18.90
2009,08,21,13,32,19.10
2009,08,21,13,33,19.20
2009,08,21,13,34,19.30
2009,08,21,13,35,19.20
2009,08,21,13,36,19.10
2009,08,21,13,37,19.10
2009,08,21,13,38,19.10
2009,08,21,13,39,19.10
2009,08,21,13,40,19.10
2009,08,21,13,41,19.00
2009,08,21,13,42,18.90
2009,08,21,13,43,18.90
2009,08,21,13,44,18.80
2009,08,21,13,45,18.70
2009,08,21,13,46,18.60
2009,08,21,13,47,18.50
2009,08,21,13,48,18.50
2009,08,21,13,49,18.50
2009,08,21,13,50,18.50
2009,08,21,13,51,18.60
2009,08,21,13,52,18.60
2009,08,21,13,53,18.70
2009,08,21,13,54,18.70
2009,08,21,13,55,18.60
2009,08,21,13,56,18.60
2009,08,21,13,57,18.70
2009,08,21,13,58,18.60
2009,08,21,13,59,18.60
2009,08,21,14,00,18.60
2009,08,21,14,01,18.70
2009,08,21,14,02,18.80
2009,08,21,14,03,18.90
2009,08,21,14,04,18.80
2009,08,21,14,05,18.90
2009,08,21,14,06,18.90
2009,08,21,14,07,18.90
2009,08,21,14,08,19.00
2009,08,21,14,09,19.10
2009,08,21,14,10,19.10
2009,08,21,14,11,19.30
2009,08,21,14,12,19.40
2009,08,21,14,13,19.30
2009,08,21,14,14,19.30
2009,08,21,14,15,19.20
2009,08,21,14,16,19.10
2009,08,21,14,17,19.10
2009,08,21,14,18,19.00
2009,08,21,14,19,18.90
2009,08,21,14,20,18.90
2009,08,21,14,21,19.00
2009,08,21,14,22,19.10
2009,08,21,14,23,19.10
2009,08,21,14,24,19.20
2009,08,21,14,25,19.20
2009,08,21,14,26,19.10
2009,08,21,14,27,19.10
2009,08,21,14,28,19.10
2009,08,21,14,29,19.10
2009,08,21,14,30,19.10
2009,08,21,14,31,19.20
2009,08,21,14,32,19.20
2009,08,21,14,33,19.20
2009,08,21,14,34,19.10
2009,08,21,14,35,19.10
2009,08,21,14,36,19.10
2009,08,21,14,37,19.20
2009,08,21,14,38,19.20
2009,08,21,14,39,19.40
2009,08,21,14,40,19.40
2009,08,21,14,41,19.50
2009,08,21,14,42,19.50
2009,08,21,14,43,19.50
2009,08,21,14,44,19.40
2009,08,21,14,45,19.30
2009,08,21,14,46,19.30
2009,08,21,14,47,19.20
2009,08,21,14,48,19.20
2009,08,21,14,49,19.10
2009,08,21,14,50,19.10
2009,08,21,14,51,19.10
2009,08,21,14,52,19.20
2009,08,21,14,53,19.20
2009,08,21,14,54,19.20
2009,08,21,14,55,19.20
2009,08,21,14,56,19.20
2009,08,21,14,57,19.20
2009,08,21,14,58,19.10
2009,08,21,14,59,19.10
2009,08,21,15,00,19.10
2009,08,21,15,01,19.00
2009,08,21,15,02,18.90
2009,08,21,15,03,18.90
2009,08,21,15,04,18.90
2009,08,21,15,05,18.90
2009,08,21,15,06,18.90
2009,08,21,15,07,18.90
2009,08,21,15,08,18.90
2009,08,21,15,09,18.90
2009,08,21,15,10,18.90
2009,08,21,15,11,18.90
2009,08,21,15,12,18.90
2009,08,21,15,13,18.90
2009,08,21,15,14,19.00
2009,08,21,15,15,19.10
2009,08,21,15,16,19.10
2009,08,21,15,17,19.20
2009,08,21,15,18,19.10
2009,08,21,15,19,19.10
2009,08,21,15,20,19.20
2009,08,21,15,21,19.30
2009,08,21,15,22,19.30
2009,08,21,15,23,19.30
2009,08,21,15,24,19.20
2009,08,21,15,25,19.20
2009,08,21,15,26,19.10
2009,08,21,15,27,19.00
2009,08,21,15,28,18.80
2009,08,21,15,29,18.60
2009,08,21,15,30,18.50
2009,08,21,15,31,18.40
2009,08,21,15,32,18.40
2009,08,21,15,33,18.40
2009,08,21,15,34,18.50
2009,08,21,15,35,18.60
2009,08,21,15,36,18.60
2009,08,21,15,37,18.70
2009,08,21,15,38,18.80
2009,08,21,15,39,18.90
2009,08,21,15,40,18.90
2009,08,21,15,41,19.00
2009,08,21,15,42,18.90
2009,08,21,15,43,18.90
2009,08,21,15,44,18.90
2009,08,21,15,45,19.10
2009,08,21,15,46,19.20
2009,08,21,15,47,19.30
2009,08,21,15,48,19.40
2009,08,21,15,49,19.20
2009,08,21,15,50,19.20
2009,08,21,15,51,19.20
2009,08,21,15,52,19.10
2009,08,21,15,53,18.90
2009,08,21,15,54,18.80
2009,08,21,15,55,18.80
2009,08,21,15,56,18.80
2009,08,21,15,57,18.90
2009,08,21,15,58,18.80
2009,08,21,15,59,18.80
2009,08,21,16,00,18.70
2009,08,21,16,01,18.80
2009,08,21,16,02,18.80
2009,08,21,16,03,18.60
2009,08,21,16,04,18.60
2009,08,21,16,05,18.70
2009,08,21,16,06,18.80
2009,08,21,16,07,18.90
2009,08,21,16,08,19.00
2009,08,21,16,09,19.10
2009,08,21,16,10,19.10
2009,08,21,16,11,19.20
2009,08,21,16,12,19.20
2009,08,21,16,13,19.20
2009,08,21,16,14,19.10
2009,08,21,16,15,19.20
2009,08,21,16,16,19.30
2009,08,21,16,17,19.30
2009,08,21,16,18,19.40
2009,08,21,16,19,19.40
2009,08,21,16,20,19.40
2009,08,21,16,21,19.50
2009,08,21,16,22,19.50
2009,08,21,16,23,19.60
2009,08,21,16,24,19.60
2009,08,21,16,25,19.50
2009,08,21,16,26,19.50
2009,08,21,16,27,19.40
2009,08,21,16,28,19.40
2009,08,21,16,29,19.30
2009,08,21,16,30,19.20
2009,08,21,16,31,19.20
2009,08,21,16,32,19.20
2009,08,21,16,33,19.30
2009,08,21,16,34,19.30
2009,08,21,16,35,19.30
2009,08,21,16,36,19.40
2009,08,21,16,37,19.50
2009,08,21,16,38,19.60
2009,08,21,16,39,19.70
2009,08,21,16,40,19.80
2009,08,21,16,41,19.90
2009,08,21,16,42,20.10
2009,08,21,16,43,20.30
2009,08,21,16,44,20.40
2009,08,21,16,45,20.50
2009,08,21,16,46,20.60
2009,08,21,16,47,20.70
2009,08,21,16,48,20.90
2009,08,21,16,49,21.00
2009,08,21,16,50,21.10
2009,08,21,16,51,21.20
2009,08,21,16,52,21.30
2009,08,21,16,53,21.50
2009,08,21,16,54,21.60
2009,08,21,16,55,21.60
2009,08,21,16,56,21.70
2009,08,21,16,57,21.80
2009,08,21,16,58,21.80
2009,08,21,16,59,21.80
2009,08,21,17,00,21.90
2009,08,21,17,01,21.90
2009,08,21,17,02,22.00
2009,08,21,17,03,22.00
2009,08,21,17,04,22.10
2009,08,21,17,05,22.00
2009,08,21,17,06,22.00
2009,08,21,17,07,22.00
2009,08,21,17,08,21.90
2009,08,21,17,09,21.90
2009,08,21,17,10,21.90
2009,08,21,17,11,21.90
2009,08,21,17,12,21.90
2009,08,21,17,13,21.90
2009,08,21,17,14,21.90
2009,08,21,17,15,21.90
2009,08,21,17,16,21.80
2009,08,21,17,17,21.80
2009,08,21,17,18,21.80
2009,08,21,17,19,21.90